Retour au catalogue

COSMOS 397 DEB *

ActifLEO
NORAD 19024·DEBRIS·🇷🇺 Russia

Lancé Feb 25, 1971 depuis Baikonur Cosmodrome

Loading…

Prochains Passages (prochaines 24 heures)

TLE

FraisSource: Space-Track

Époque: Sep 14, 2026, 10:13 UTC

1 19024U 71015DN  26257.42590459  .00000524  00000-0  67119-3 0  9998
2 19024  66.2741 249.5370 0501507 333.5468  96.5494 13.26848681857569

Suivez COSMOS 397 DEB * en temps réel avec AllMySat

Download on the App Store